SBI5566 UZTT-UNNT

Flight info

Callsign SBI5566
Flight time 2h 29m
Altitude 35000
Route BAMUT1B BAMUT Z554 SMK N102 BLH M149 LAGMO B955 ORPAS ORPAS1K
Aircraft A321/M-SDE3FGHIRWY/LB1

Departure

Time 2026-04-30 08:29
Airport Tashkent International Airport (UZTT)

Arrival

Time 2026-04-30 10:59
Airport Novosibirsk Tolmachevo Airport (UNNT)
Time Latitude Longitude Altitude Speed Heading
2026-04-30 07:39 41.26266 69.26897 1407 ft 0 kts 264°
2026-04-30 08:19 41.26267 69.26907 1407 ft 4 kts 263°
2026-04-30 08:19 41.26272 69.26942 1413 ft 4 kts 253°
2026-04-30 08:19 41.26281 69.26975 1412 ft 4 kts 244°
2026-04-30 08:19 41.26294 69.27007 1415 ft 4 kts 236°
2026-04-30 08:20 41.26309 69.27036 1415 ft 4 kts 240°
2026-04-30 08:20 41.26317 69.27060 1412 ft 0 kts 264°
2026-04-30 08:22 41.26317 69.27055 1412 ft 3 kts 264°
2026-04-30 08:23 41.26289 69.26995 1410 ft 12 kts 198°
2026-04-30 08:23 41.26203 69.27078 1413 ft 20 kts 138°
2026-04-30 08:23 41.26088 69.27213 1407 ft 20 kts 138°
2026-04-30 08:23 41.26079 69.27386 1413 ft 22 kts 85°
2026-04-30 08:24 41.26104 69.27621 1407 ft 29 kts 82°
2026-04-30 08:24 41.26138 69.27923 1412 ft 37 kts 81°
2026-04-30 08:24 41.26183 69.28289 1411 ft 44 kts 81°
2026-04-30 08:24 41.26184 69.28630 1407 ft 39 kts 92°
2026-04-30 08:25 41.26191 69.29018 1409 ft 43 kts 86°
2026-04-30 08:25 41.26205 69.29405 1407 ft 41 kts 87°
2026-04-30 08:25 41.26220 69.29777 1409 ft 39 kts 87°
2026-04-30 08:25 41.26205 69.29997 1413 ft 15 kts 130°
2026-04-30 08:26 41.26186 69.30020 1408 ft 0 kts 141°
2026-04-30 08:28 41.26178 69.30028 1410 ft 6 kts 141°
2026-04-30 08:28 41.26108 69.30088 1409 ft 17 kts 173°
2026-04-30 08:28 41.26042 69.29903 1405 ft 44 kts 261°
2026-04-30 08:29 41.25958 69.29132 1402 ft 121 kts 261°
2026-04-30 08:29 41.25805 69.27749 1412 ft 178 kts 262°
2026-04-30 08:29 41.25611 69.26015 1866 ft 197 kts 262°
2026-04-30 08:29 41.25390 69.24112 2409 ft 220 kts 261°
2026-04-30 08:30 41.25140 69.22002 2636 ft 244 kts 261°
2026-04-30 08:30 41.24869 69.19689 3038 ft 259 kts 261°
2026-04-30 08:30 41.24588 69.17290 3679 ft 265 kts 261°
2026-04-30 08:30 41.24481 69.14842 4326 ft 269 kts 281°
2026-04-30 08:31 41.25312 69.12636 4978 ft 274 kts 315°
2026-04-30 08:31 41.26963 69.11396 5624 ft 279 kts 349°
2026-04-30 08:31 41.28892 69.11552 6268 ft 283 kts 19°
2026-04-30 08:31 41.30696 69.12659 6919 ft 286 kts 30°
2026-04-30 08:32 41.32424 69.13997 7598 ft 288 kts 31°
2026-04-30 08:32 41.34135 69.15332 8272 ft 289 kts 31°
2026-04-30 08:32 41.35884 69.16697 8952 ft 291 kts 30°
2026-04-30 08:32 41.37688 69.17883 9608 ft 293 kts 22°
2026-04-30 08:33 41.39617 69.18875 10202 ft 298 kts 19°
2026-04-30 08:33 41.41623 69.19796 10324 ft 318 kts 18°
2026-04-30 08:33 41.43795 69.20762 10448 ft 337 kts 18°
2026-04-30 08:33 41.46068 69.21788 10597 ft 354 kts 19°
2026-04-30 08:34 41.48421 69.22883 11009 ft 361 kts 19°
2026-04-30 08:34 41.50813 69.24024 11533 ft 365 kts 20°
2026-04-30 08:34 41.53202 69.25188 12075 ft 368 kts 20°
2026-04-30 08:34 41.55629 69.26386 12630 ft 372 kts 20°
2026-04-30 08:35 41.58046 69.27585 13160 ft 375 kts 20°
2026-04-30 08:35 41.60523 69.28819 13712 ft 379 kts 20°
2026-04-30 08:35 41.62980 69.30042 14183 ft 382 kts 20°
2026-04-30 08:35 41.65493 69.31290 14662 ft 385 kts 20°
2026-04-30 08:36 41.68014 69.32539 15134 ft 387 kts 20°
2026-04-30 08:36 41.70537 69.33784 15592 ft 390 kts 20°
2026-04-30 08:36 41.73072 69.35036 16063 ft 392 kts 20°
2026-04-30 08:36 41.75647 69.36310 16514 ft 394 kts 20°
2026-04-30 08:37 41.78217 69.37586 16950 ft 397 kts 20°
2026-04-30 08:37 41.80834 69.38890 17378 ft 400 kts 19°
2026-04-30 08:37 41.83420 69.40178 17783 ft 402 kts 19°
2026-04-30 08:37 41.86108 69.41290 18193 ft 403 kts 11°
2026-04-30 08:38 41.88888 69.41865 18524 ft 405 kts
2026-04-30 08:38 41.91661 69.42363 18859 ft 407 kts
2026-04-30 08:38 41.94491 69.42873 19188 ft 409 kts
2026-04-30 08:38 41.97325 69.43387 19520 ft 411 kts
2026-04-30 08:39 42.00143 69.43860 19832 ft 413 kts
2026-04-30 08:39 42.03040 69.43943 20147 ft 414 kts 359°
2026-04-30 08:39 42.05908 69.43960 20465 ft 416 kts 359°
2026-04-30 08:39 42.08826 69.43977 20800 ft 418 kts 359°
2026-04-30 08:40 42.11731 69.43997 21129 ft 420 kts 359°
2026-04-30 08:40 42.14681 69.44022 21469 ft 422 kts 359°
2026-04-30 08:40 42.17609 69.44045 21802 ft 425 kts 359°
2026-04-30 08:40 42.20574 69.44063 22145 ft 427 kts 359°
2026-04-30 08:41 42.23528 69.44086 22483 ft 429 kts 359°
2026-04-30 08:41 42.26512 69.44107 22824 ft 431 kts 359°
2026-04-30 08:41 42.29543 69.44129 23169 ft 433 kts 359°
2026-04-30 08:41 42.32550 69.44381 23492 ft 437 kts
2026-04-30 08:42 42.35486 69.45359 23759 ft 441 kts 19°
2026-04-30 08:42 42.38306 69.47115 24030 ft 444 kts 30°
2026-04-30 08:42 42.40811 69.49524 24284 ft 447 kts 41°
2026-04-30 08:42 42.43006 69.52495 24542 ft 449 kts 46°
2026-04-30 08:43 42.45167 69.55615 24805 ft 451 kts 47°
2026-04-30 08:43 42.47307 69.58708 25063 ft 454 kts 47°
2026-04-30 08:43 42.49460 69.61828 25319 ft 456 kts 47°
2026-04-30 08:43 42.51640 69.64995 25579 ft 458 kts 47°
2026-04-30 08:44 42.53803 69.68142 25830 ft 460 kts 47°
2026-04-30 08:44 42.55978 69.71305 26091 ft 462 kts 47°
2026-04-30 08:44 42.58182 69.74512 26353 ft 464 kts 47°
2026-04-30 08:44 42.60393 69.77743 26622 ft 466 kts 47°
2026-04-30 08:45 42.62575 69.80927 26875 ft 468 kts 46°
2026-04-30 08:45 42.64979 69.83944 27118 ft 470 kts 40°
2026-04-30 08:45 42.67485 69.86832 27369 ft 472 kts 40°
2026-04-30 08:45 42.69971 69.89705 27621 ft 474 kts 40°
2026-04-30 08:46 42.72502 69.92638 27857 ft 476 kts 41°
2026-04-30 08:46 42.75024 69.95562 28079 ft 477 kts 40°
2026-04-30 08:46 42.77557 69.98501 28297 ft 479 kts 41°
2026-04-30 08:46 42.80097 70.01456 28497 ft 481 kts 41°
2026-04-30 08:47 42.82642 70.04428 28704 ft 482 kts 41°
2026-04-30 08:47 42.85194 70.07411 28899 ft 484 kts 41°
2026-04-30 08:47 42.87732 70.10376 29067 ft 485 kts 41°
2026-04-30 08:47 42.90310 70.13390 29304 ft 485 kts 41°
2026-04-30 08:48 42.92851 70.16364 29552 ft 484 kts 41°
2026-04-30 08:48 42.95389 70.19334 29783 ft 484 kts 41°
2026-04-30 08:48 42.97957 70.22351 30026 ft 483 kts 41°
2026-04-30 08:48 43.00492 70.25336 30234 ft 483 kts 41°
2026-04-30 08:49 43.03028 70.28319 30428 ft 482 kts 41°
2026-04-30 08:49 43.05582 70.31325 30638 ft 482 kts 41°
2026-04-30 08:49 43.08102 70.34296 30836 ft 482 kts 41°
2026-04-30 08:49 43.10637 70.37289 31024 ft 481 kts 41°
2026-04-30 08:50 43.13185 70.40296 31238 ft 481 kts 41°
2026-04-30 08:50 43.15703 70.43273 31438 ft 480 kts 41°
2026-04-30 08:50 43.18230 70.46266 31640 ft 480 kts 41°
2026-04-30 08:50 43.20773 70.49280 31855 ft 479 kts 41°
2026-04-30 08:51 43.23286 70.52261 32061 ft 479 kts 41°
2026-04-30 08:51 43.25799 70.55244 32263 ft 479 kts 41°
2026-04-30 08:51 43.28299 70.58220 32472 ft 478 kts 42°
2026-04-30 08:51 43.30811 70.61212 32684 ft 477 kts 42°
2026-04-30 08:52 43.33306 70.64185 32894 ft 477 kts 42°
2026-04-30 08:52 43.35819 70.67181 33096 ft 477 kts 42°
2026-04-30 08:52 43.38306 70.70149 33312 ft 476 kts 42°
2026-04-30 08:52 43.40826 70.73162 33526 ft 475 kts 42°
2026-04-30 08:53 43.43306 70.76131 33731 ft 475 kts 42°
2026-04-30 08:53 43.45783 70.79106 33937 ft 474 kts 42°
2026-04-30 08:53 43.48264 70.82090 34091 ft 474 kts 42°
2026-04-30 08:53 43.50701 70.85216 34231 ft 473 kts 48°
2026-04-30 08:54 43.52765 70.88704 34372 ft 472 kts 57°
2026-04-30 08:54 43.54539 70.92500 34487 ft 472 kts 59°
2026-04-30 08:54 43.56284 70.96287 34637 ft 472 kts 59°
2026-04-30 08:54 43.58059 71.00126 34792 ft 472 kts 58°
2026-04-30 08:55 43.59826 71.03930 34881 ft 472 kts 58°
2026-04-30 08:55 43.63360 71.11553 34891 ft 470 kts 58°
2026-04-30 08:56 43.66880 71.19170 34890 ft 470 kts 58°
2026-04-30 08:56 43.70380 71.26778 34891 ft 470 kts 58°
2026-04-30 08:57 43.73878 71.34415 34886 ft 470 kts 58°
2026-04-30 08:57 43.77361 71.42030 34881 ft 470 kts 58°
2026-04-30 08:58 43.80260 71.48381 34883 ft 470 kts 58°
2026-04-30 08:58 43.84326 71.57315 34885 ft 470 kts 58°
2026-04-30 08:59 43.87231 71.63720 34884 ft 470 kts 58°
2026-04-30 08:59 43.91258 71.72625 34887 ft 470 kts 58°
2026-04-30 09:00 43.94149 71.79025 34892 ft 469 kts 58°
2026-04-30 09:00 43.97596 71.86680 34895 ft 468 kts 58°
2026-04-30 09:01 44.01036 71.94332 34896 ft 467 kts 58°
2026-04-30 09:01 44.04471 72.02017 34895 ft 467 kts 58°
2026-04-30 09:02 44.09593 72.13504 34890 ft 466 kts 58°
2026-04-30 09:02 44.13001 72.21181 34880 ft 465 kts 58°
2026-04-30 09:03 44.16382 72.28800 34890 ft 465 kts 58°
2026-04-30 09:03 44.19772 72.36452 34884 ft 465 kts 58°
2026-04-30 09:04 44.23156 72.44128 34879 ft 465 kts 58°
2026-04-30 09:04 44.26548 72.51826 34879 ft 465 kts 58°
2026-04-30 09:05 44.29918 72.59509 34877 ft 465 kts 58°
2026-04-30 09:05 44.33283 72.67194 34875 ft 466 kts 58°
2026-04-30 09:06 44.36668 72.74943 34874 ft 466 kts 58°
2026-04-30 09:06 44.40051 72.82699 34870 ft 467 kts 58°
2026-04-30 09:07 44.43407 72.90416 34870 ft 467 kts 58°
2026-04-30 09:07 44.46787 72.98221 34872 ft 467 kts 58°
2026-04-30 09:08 44.50139 73.05972 34874 ft 468 kts 58°
2026-04-30 09:08 44.53504 73.13792 34879 ft 468 kts 58°
2026-04-30 09:09 44.56869 73.21605 34884 ft 468 kts 58°
2026-04-30 09:09 44.60209 73.29405 34894 ft 468 kts 58°
2026-04-30 09:10 44.63556 73.37240 34898 ft 468 kts 58°
2026-04-30 09:10 44.66896 73.45089 34900 ft 468 kts 58°
2026-04-30 09:11 44.70232 73.52946 34902 ft 468 kts 58°
2026-04-30 09:11 44.73558 73.60803 34908 ft 468 kts 58°
2026-04-30 09:12 44.76883 73.68662 34910 ft 467 kts 58°
2026-04-30 09:12 44.80201 73.76528 34912 ft 467 kts 58°
2026-04-30 09:13 44.83509 73.84407 34915 ft 467 kts 58°
2026-04-30 09:13 44.86819 73.92306 34915 ft 467 kts 58°
2026-04-30 09:14 44.90096 74.00178 34911 ft 467 kts 58°
2026-04-30 09:14 44.93387 74.08072 34912 ft 467 kts 58°
2026-04-30 09:15 44.96730 74.15913 34910 ft 465 kts 52°
2026-04-30 09:15 45.01253 74.22325 34910 ft 460 kts 32°
2026-04-30 09:16 45.06928 74.26264 34903 ft 453 kts 13°
2026-04-30 09:16 45.12996 74.28593 34901 ft 453 kts 12°
2026-04-30 09:17 45.19091 74.30934 34895 ft 453 kts 12°
2026-04-30 09:17 45.25172 74.33289 34900 ft 454 kts 13°
2026-04-30 09:18 45.31257 74.35658 34900 ft 454 kts 12°
2026-04-30 09:18 45.37330 74.38006 34903 ft 454 kts 12°
2026-04-30 09:19 45.43449 74.40379 34907 ft 454 kts 13°
2026-04-30 09:19 45.49499 74.42736 34911 ft 454 kts 12°
2026-04-30 09:20 45.55629 74.45121 34912 ft 454 kts 12°
2026-04-30 09:20 45.61684 74.47477 34916 ft 454 kts 12°
2026-04-30 09:21 45.67771 74.49857 34918 ft 454 kts 12°
2026-04-30 09:21 45.73860 74.52255 34924 ft 453 kts 12°
2026-04-30 09:22 45.79954 74.54658 34925 ft 453 kts 12°
2026-04-30 09:22 45.86022 74.57042 34933 ft 453 kts 12°
2026-04-30 09:23 45.92099 74.59442 34937 ft 452 kts 12°
2026-04-30 09:23 45.98139 74.61841 34948 ft 452 kts 12°
2026-04-30 09:24 46.04187 74.64257 34954 ft 452 kts 13°
2026-04-30 09:24 46.10259 74.66687 34963 ft 451 kts 13°
2026-04-30 09:25 46.16313 74.69113 34967 ft 451 kts 12°
2026-04-30 09:25 46.22354 74.71536 34978 ft 450 kts 12°
2026-04-30 09:26 46.28366 74.73946 34990 ft 450 kts 12°
2026-04-30 09:26 46.34402 74.76382 34995 ft 450 kts 13°
2026-04-30 09:27 46.40414 74.78824 35002 ft 449 kts 13°
2026-04-30 09:27 46.46416 74.81254 35009 ft 449 kts 12°
2026-04-30 09:28 46.52453 74.83696 35009 ft 449 kts 12°
2026-04-30 09:28 46.58469 74.86143 35022 ft 448 kts 13°
2026-04-30 09:29 46.64461 74.88591 35027 ft 448 kts 13°
2026-04-30 09:29 46.70447 74.91033 35039 ft 447 kts 13°
2026-04-30 09:30 46.76421 74.93482 35042 ft 447 kts 13°
2026-04-30 09:30 46.82420 74.95955 35048 ft 447 kts 13°
2026-04-30 09:31 46.88371 74.98587 35043 ft 448 kts 19°
2026-04-30 09:31 46.93959 75.02712 35045 ft 450 kts 25°
2026-04-30 09:32 46.99462 75.06955 35040 ft 450 kts 25°
2026-04-30 09:32 47.05005 75.11227 35035 ft 450 kts 25°
2026-04-30 09:33 47.10543 75.15505 35032 ft 450 kts 25°
2026-04-30 09:33 47.16071 75.19793 35029 ft 450 kts 25°
2026-04-30 09:34 47.21610 75.24100 35022 ft 450 kts 25°
2026-04-30 09:34 47.27137 75.28412 35024 ft 450 kts 25°
2026-04-30 09:35 47.32665 75.32738 35023 ft 450 kts 25°
2026-04-30 09:35 47.38188 75.37058 35023 ft 449 kts 25°
2026-04-30 09:36 47.43705 75.41383 35026 ft 449 kts 25°
2026-04-30 09:36 47.49226 75.45726 35028 ft 449 kts 25°
2026-04-30 09:37 47.54741 75.50072 35026 ft 449 kts 25°
2026-04-30 09:37 47.60250 75.54435 35030 ft 449 kts 25°
2026-04-30 09:38 47.65747 75.58807 35026 ft 448 kts 25°
2026-04-30 09:38 47.71243 75.63186 35036 ft 448 kts 26°
2026-04-30 09:39 47.76735 75.67570 35038 ft 448 kts 26°
2026-04-30 09:39 47.82215 75.71958 35038 ft 447 kts 26°
2026-04-30 09:40 47.87701 75.76352 35041 ft 447 kts 26°
2026-04-30 09:40 47.93173 75.80745 35041 ft 447 kts 26°
2026-04-30 09:41 47.98648 75.85150 35039 ft 447 kts 26°
2026-04-30 09:41 48.04112 75.89559 35043 ft 446 kts 26°
2026-04-30 09:42 48.09576 75.93980 35038 ft 446 kts 26°
2026-04-30 09:42 48.15027 75.98407 35043 ft 446 kts 26°
2026-04-30 09:43 48.20480 76.02843 35038 ft 446 kts 26°
2026-04-30 09:43 48.25923 76.07276 35046 ft 445 kts 26°
2026-04-30 09:44 48.31365 76.11726 35049 ft 445 kts 26°
2026-04-30 09:44 48.36807 76.16183 35050 ft 445 kts 26°
2026-04-30 09:45 48.42234 76.20649 35050 ft 445 kts 26°
2026-04-30 09:45 48.47662 76.25125 35050 ft 444 kts 26°
2026-04-30 09:46 48.53081 76.29597 35049 ft 444 kts 26°
2026-04-30 09:46 48.58495 76.34083 35049 ft 444 kts 26°
2026-04-30 09:47 48.63909 76.38560 35052 ft 443 kts 26°
2026-04-30 09:47 48.69315 76.43041 35056 ft 443 kts 26°
2026-04-30 09:48 48.74720 76.47540 35052 ft 443 kts 26°
2026-04-30 09:48 48.80121 76.52056 35056 ft 443 kts 26°
2026-04-30 09:49 48.85536 76.56579 35062 ft 443 kts 26°
2026-04-30 09:49 48.90937 76.61107 35062 ft 443 kts 27°
2026-04-30 09:50 48.95416 76.64883 35067 ft 443 kts 27°
2026-04-30 09:50 49.00808 76.69441 35066 ft 443 kts 27°
2026-04-30 09:51 49.06201 76.74003 35076 ft 443 kts 27°
2026-04-30 09:51 49.11593 76.78577 35077 ft 443 kts 27°
2026-04-30 09:52 49.16985 76.83175 35078 ft 443 kts 27°
2026-04-30 09:52 49.22368 76.87780 35083 ft 443 kts 27°
2026-04-30 09:53 49.27756 76.92382 35085 ft 443 kts 27°
2026-04-30 09:53 49.33145 76.96985 35088 ft 443 kts 27°
2026-04-30 09:54 49.38532 77.01602 35093 ft 444 kts 27°
2026-04-30 09:54 49.43916 77.06242 35098 ft 444 kts 27°
2026-04-30 09:55 49.49305 77.10891 35100 ft 444 kts 27°
2026-04-30 09:55 49.54688 77.15545 35103 ft 444 kts 27°
2026-04-30 09:56 49.60072 77.20212 35095 ft 444 kts 27°
2026-04-30 09:56 49.65453 77.24885 35107 ft 444 kts 27°
2026-04-30 09:57 49.70841 77.29569 35112 ft 444 kts 27°
2026-04-30 09:57 49.76216 77.34264 35107 ft 444 kts 27°
2026-04-30 09:58 49.81587 77.38985 35108 ft 444 kts 27°
2026-04-30 09:58 49.86955 77.43708 35107 ft 444 kts 27°
2026-04-30 09:59 49.97684 77.53170 35106 ft 443 kts 28°
2026-04-30 10:00 50.05731 77.60283 35106 ft 443 kts 28°
2026-04-30 10:01 50.13763 77.67433 35109 ft 443 kts 28°
2026-04-30 10:02 50.21788 77.74610 35108 ft 443 kts 28°
2026-04-30 10:02 50.27147 77.79400 35106 ft 443 kts 28°
2026-04-30 10:03 50.32467 77.84182 35108 ft 443 kts 28°
2026-04-30 10:03 50.37837 77.89011 35110 ft 443 kts 28°
2026-04-30 10:04 50.43179 77.93839 35111 ft 443 kts 28°
2026-04-30 10:04 50.48476 77.98646 35073 ft 439 kts 28°
2026-04-30 10:05 50.53780 78.03459 35079 ft 440 kts 28°
2026-04-30 10:05 50.59098 78.08284 35094 ft 442 kts 28°
2026-04-30 10:06 50.64425 78.13134 35091 ft 443 kts 28°
2026-04-30 10:06 50.69739 78.17999 35101 ft 443 kts 28°
2026-04-30 10:07 50.75050 78.22880 35103 ft 444 kts 28°
2026-04-30 10:07 50.80409 78.27820 35109 ft 444 kts 28°
2026-04-30 10:08 50.85729 78.32723 35119 ft 444 kts 28°
2026-04-30 10:08 50.91066 78.37654 35123 ft 444 kts 29°
2026-04-30 10:09 50.96410 78.42598 35121 ft 444 kts 29°
2026-04-30 10:09 51.01738 78.47558 35128 ft 444 kts 29°
2026-04-30 10:10 51.07062 78.52526 35133 ft 444 kts 29°
2026-04-30 10:10 51.12395 78.57512 35136 ft 444 kts 29°
2026-04-30 10:11 51.17732 78.62514 35133 ft 444 kts 29°
2026-04-30 10:11 51.23042 78.67511 35137 ft 444 kts 29°
2026-04-30 10:12 51.28336 78.72503 35141 ft 444 kts 29°
2026-04-30 10:12 51.33652 78.77525 35135 ft 443 kts 29°
2026-04-30 10:13 51.38964 78.82550 35137 ft 443 kts 29°
2026-04-30 10:13 51.44265 78.87591 35130 ft 442 kts 29°
2026-04-30 10:14 51.49536 78.92617 35121 ft 441 kts 29°
2026-04-30 10:14 51.57452 79.00191 35123 ft 442 kts 29°
2026-04-30 10:15 51.62729 79.05261 35121 ft 441 kts 29°
2026-04-30 10:15 51.67999 79.10327 35125 ft 441 kts 29°
2026-04-30 10:16 51.73272 79.15392 35127 ft 441 kts 29°
2026-04-30 10:17 51.81166 79.23045 35173 ft 441 kts 29°
2026-04-30 10:17 51.88914 79.31082 35204 ft 441 kts 33°
2026-04-30 10:18 51.93960 79.36756 35215 ft 441 kts 33°
2026-04-30 10:19 52.01556 79.45221 35214 ft 441 kts 32°
2026-04-30 10:19 52.06638 79.50817 35199 ft 441 kts 32°
2026-04-30 10:20 52.11714 79.56425 35180 ft 441 kts 32°
2026-04-30 10:20 52.19307 79.64877 35141 ft 440 kts 32°
2026-04-30 10:21 52.24363 79.70517 35137 ft 440 kts 32°
2026-04-30 10:21 52.29410 79.76174 35138 ft 440 kts 32°
2026-04-30 10:22 52.34458 79.81828 35140 ft 440 kts 32°
2026-04-30 10:22 52.39500 79.87504 35138 ft 440 kts 32°
2026-04-30 10:23 52.44535 79.93196 34956 ft 438 kts 33°
2026-04-30 10:23 52.47046 79.96038 34282 ft 439 kts 33°
2026-04-30 10:23 52.49531 79.98850 33525 ft 439 kts 33°
2026-04-30 10:24 52.52043 80.01703 32712 ft 440 kts 33°
2026-04-30 10:24 52.54587 80.04592 31868 ft 442 kts 33°
2026-04-30 10:24 52.57135 80.07487 31021 ft 445 kts 33°
2026-04-30 10:24 52.58197 80.08696 30672 ft 446 kts 33°
2026-04-30 10:25 52.59125 80.09754 30368 ft 446 kts 33°
2026-04-30 10:25 52.61888 80.12913 29607 ft 444 kts 33°
2026-04-30 10:25 52.64402 80.15794 29026 ft 438 kts 33°
2026-04-30 10:25 52.66885 80.18639 28408 ft 434 kts 33°
2026-04-30 10:26 52.69374 80.21488 28121 ft 432 kts 33°
2026-04-30 10:26 52.71830 80.24296 28152 ft 432 kts 33°
2026-04-30 10:26 52.76775 80.29972 28151 ft 433 kts 33°
2026-04-30 10:27 52.81712 80.35663 28156 ft 433 kts 33°
2026-04-30 10:27 52.86654 80.41389 28141 ft 432 kts 33°
2026-04-30 10:28 52.91582 80.47100 28154 ft 432 kts 33°
2026-04-30 10:28 52.96478 80.52778 28149 ft 432 kts 33°
2026-04-30 10:29 53.01399 80.58510 28154 ft 432 kts 33°
2026-04-30 10:29 53.06324 80.64265 28161 ft 432 kts 33°
2026-04-30 10:30 53.11238 80.70021 28156 ft 432 kts 33°
2026-04-30 10:30 53.16140 80.75799 28147 ft 432 kts 33°
2026-04-30 10:31 53.21040 80.81594 28152 ft 431 kts 33°
2026-04-30 10:31 53.25937 80.87387 28163 ft 431 kts 33°
2026-04-30 10:32 53.30828 80.93191 28160 ft 431 kts 33°
2026-04-30 10:32 53.35717 80.98990 28167 ft 431 kts 33°
2026-04-30 10:33 53.40601 81.04811 28162 ft 431 kts 33°
2026-04-30 10:33 53.44654 81.09661 28178 ft 431 kts 33°
2026-04-30 10:34 53.49529 81.15507 28172 ft 431 kts 33°
2026-04-30 10:34 53.54404 81.21363 28181 ft 431 kts 33°
2026-04-30 10:35 53.59174 81.27120 28179 ft 431 kts 33°
2026-04-30 10:35 53.64033 81.32992 28184 ft 431 kts 33°
2026-04-30 10:36 53.68893 81.38888 28179 ft 431 kts 33°
2026-04-30 10:36 53.73749 81.44803 28032 ft 428 kts 33°
2026-04-30 10:37 53.76150 81.47732 27399 ft 424 kts 33°
2026-04-30 10:37 53.78531 81.50639 26766 ft 420 kts 33°
2026-04-30 10:37 53.80892 81.53529 26151 ft 417 kts 33°
2026-04-30 10:37 53.83988 81.57321 25371 ft 413 kts 34°
2026-04-30 10:38 53.85557 81.59244 24979 ft 411 kts 34°
2026-04-30 10:38 53.87861 81.62075 24370 ft 408 kts 34°
2026-04-30 10:38 53.90143 81.64887 23791 ft 404 kts 34°
2026-04-30 10:38 53.92406 81.67681 23101 ft 401 kts 34°
2026-04-30 10:39 53.94657 81.70462 22437 ft 398 kts 34°
2026-04-30 10:39 53.96886 81.73220 22197 ft 397 kts 34°
2026-04-30 10:39 53.99121 81.75989 22184 ft 398 kts 34°
2026-04-30 10:39 54.01362 81.78766 22191 ft 398 kts 34°
2026-04-30 10:40 54.03541 81.81577 22195 ft 399 kts 39°
2026-04-30 10:40 54.05616 81.84787 21920 ft 396 kts 40°
2026-04-30 10:40 54.07637 81.87942 21203 ft 394 kts 43°
2026-04-30 10:40 54.09658 81.91099 20493 ft 393 kts 43°
2026-04-30 10:41 54.11659 81.94231 19916 ft 388 kts 40°
2026-04-30 10:41 54.13609 81.97290 19386 ft 384 kts 40°
2026-04-30 10:41 54.15565 82.00360 18835 ft 381 kts 40°
2026-04-30 10:41 54.17509 82.03410 18253 ft 378 kts 40°
2026-04-30 10:42 54.19434 82.06438 17647 ft 375 kts 41°
2026-04-30 10:42 54.21346 82.09454 17079 ft 372 kts 41°
2026-04-30 10:42 54.23249 82.12455 16524 ft 368 kts 41°
2026-04-30 10:42 54.25108 82.15391 15995 ft 365 kts 40°
2026-04-30 10:43 54.26957 82.18313 15481 ft 362 kts 41°
2026-04-30 10:43 54.28813 82.21253 14976 ft 359 kts 41°
2026-04-30 10:43 54.30637 82.24149 14478 ft 356 kts 41°
2026-04-30 10:43 54.32449 82.27026 13980 ft 353 kts 41°
2026-04-30 10:44 54.34222 82.29845 13429 ft 351 kts 41°
2026-04-30 10:44 54.36002 82.32678 12908 ft 348 kts 41°
2026-04-30 10:44 54.37767 82.35485 12407 ft 345 kts 41°
2026-04-30 10:44 54.39523 82.38276 11899 ft 342 kts 41°
2026-04-30 10:45 54.41257 82.41042 11408 ft 340 kts 41°
2026-04-30 10:45 54.42978 82.43797 10918 ft 337 kts 41°
2026-04-30 10:45 54.44681 82.46531 10428 ft 334 kts 41°
2026-04-30 10:45 54.46376 82.49258 10214 ft 332 kts 41°
2026-04-30 10:46 54.48015 82.51899 10195 ft 313 kts 41°
2026-04-30 10:46 54.49554 82.54382 10202 ft 296 kts 41°
2026-04-30 10:46 54.51040 82.56776 10205 ft 291 kts 41°
2026-04-30 10:46 54.52572 82.59041 10209 ft 290 kts 34°
2026-04-30 10:47 54.54245 82.60982 10200 ft 288 kts 32°
2026-04-30 10:47 54.55900 82.62895 9833 ft 286 kts 32°
2026-04-30 10:47 54.57547 82.64812 9379 ft 285 kts 32°
2026-04-30 10:47 54.59169 82.66701 8942 ft 284 kts 33°
2026-04-30 10:48 54.60799 82.68601 8494 ft 282 kts 33°
2026-04-30 10:48 54.62427 82.70499 8076 ft 281 kts 33°
2026-04-30 10:48 54.64052 82.72396 7649 ft 280 kts 33°
2026-04-30 10:48 54.65649 82.74262 7233 ft 279 kts 33°
2026-04-30 10:49 54.67248 82.76137 6821 ft 278 kts 32°
2026-04-30 10:49 54.68847 82.78012 6375 ft 277 kts 33°
2026-04-30 10:49 54.70437 82.79873 5930 ft 276 kts 33°
2026-04-30 10:49 54.72022 82.81728 5492 ft 275 kts 34°
2026-04-30 10:50 54.73600 82.83575 5226 ft 273 kts 34°
2026-04-30 10:50 54.75179 82.85426 5213 ft 275 kts 34°
2026-04-30 10:50 54.76760 82.87286 5215 ft 276 kts 34°
2026-04-30 10:50 54.78349 82.89161 5087 ft 274 kts 34°
2026-04-30 10:51 54.79865 82.90947 4453 ft 269 kts 34°
2026-04-30 10:51 54.81436 82.92799 3738 ft 266 kts 35°
2026-04-30 10:51 54.82963 82.94618 3530 ft 268 kts 37°
2026-04-30 10:51 54.84446 82.96585 3457 ft 268 kts 39°
2026-04-30 10:52 54.85892 82.98620 3472 ft 269 kts 40°
2026-04-30 10:52 54.87333 83.00683 3476 ft 269 kts 40°
2026-04-30 10:52 54.88779 83.02755 3472 ft 270 kts 40°
2026-04-30 10:52 54.90256 83.04755 3364 ft 270 kts 31°
2026-04-30 10:53 54.92005 83.05773 3065 ft 267 kts
2026-04-30 10:53 54.93821 83.05315 2757 ft 264 kts 336°
2026-04-30 10:53 54.95313 83.03536 2483 ft 258 kts 311°
2026-04-30 10:53 54.96457 83.01245 2474 ft 243 kts 309°
2026-04-30 10:54 54.97529 82.99128 2485 ft 225 kts 309°
2026-04-30 10:54 54.98547 82.97131 2477 ft 215 kts 310°
2026-04-30 10:54 54.99520 82.95219 2475 ft 201 kts 310°
2026-04-30 10:54 55.00387 82.93519 2493 ft 177 kts 309°
2026-04-30 10:55 55.01165 82.91994 2474 ft 161 kts 309°
2026-04-30 10:55 55.01896 82.90550 2479 ft 156 kts 307°
2026-04-30 10:55 55.02574 82.89104 2478 ft 152 kts 296°
2026-04-30 10:55 55.02982 82.87465 2476 ft 148 kts 280°
2026-04-30 10:56 55.03031 82.85697 2354 ft 146 kts 259°
2026-04-30 10:56 55.02904 82.83939 2124 ft 146 kts 259°
2026-04-30 10:56 55.02766 82.82193 1937 ft 144 kts 257°
2026-04-30 10:56 55.02618 82.80451 1727 ft 145 kts 257°
2026-04-30 10:57 55.02467 82.78720 1526 ft 144 kts 257°
2026-04-30 10:57 55.02318 82.77025 1338 ft 143 kts 258°
2026-04-30 10:57 55.02167 82.75324 1177 ft 141 kts 257°
2026-04-30 10:57 55.02012 82.73600 1029 ft 144 kts 258°
2026-04-30 10:58 55.01857 82.71867 860 ft 144 kts 259°
2026-04-30 10:58 55.01702 82.70139 683 ft 144 kts 259°
2026-04-30 10:58 55.01548 82.68424 487 ft 143 kts 259°
2026-04-30 10:58 55.01395 82.66732 375 ft 134 kts 261°
2026-04-30 10:59 55.01309 82.65787 372 ft 48 kts 261°
2026-04-30 10:59 55.01254 82.65227 373 ft 50 kts 263°
2026-04-30 10:59 55.01177 82.65053 372 ft 13 kts 166°
2026-04-30 10:59 55.01101 82.65081 373 ft 0 kts 172°
2026-04-30 11:00 55.01087 82.65085 373 ft 8 kts 172°
2026-04-30 11:00 55.00985 82.65112 373 ft 18 kts 169°
2026-04-30 11:00 55.00890 82.65166 373 ft 11 kts 128°
2026-04-30 11:01 55.00887 82.65305 373 ft 14 kts 85°
2026-04-30 11:01 55.00907 82.65538 373 ft 23 kts 82°
2026-04-30 11:01 55.00927 82.65759 373 ft 17 kts 80°
2026-04-30 11:01 55.00943 82.65943 373 ft 10 kts 80°
2026-04-30 11:02 55.00958 82.66081 373 ft 16 kts 72°
2026-04-30 11:02 55.00965 82.66111 373 ft 0 kts 68°
2026-04-30 11:02 55.00970 82.66136 373 ft 7 kts 67°
2026-04-30 11:03 55.01000 82.66275 373 ft 14 kts 70°
2026-04-30 11:03 55.01024 82.66432 373 ft 7 kts 105°
2026-04-30 11:03 55.00987 82.66465 373 ft 8 kts 167°
2026-04-30 11:04 55.00961 82.66473 373 ft 0 kts 170°